Location: Amsterdam
(30.7274°N, 84.4357°W)
Time: 05:43:06
(UTC+00:00)

Vanguard 3 - Visible Passes

Search period start: 18 February 2026 00:00
Search period end: 28 February 2026 00:00
Orbit: 507 x 3205 km, 33.3° (Epoch: 17 February)

Date Brightness Start Highest point End Pass type
(mag) Time Alt. Az. Time Alt. Az. Time Alt. Az.
18 Feb 7.6 01:38:02 10° WNW 01:41:50 44° WNW 01:41:50 44° WNW visible
19 Feb 7.2 00:14:44 10° W 00:21:43 68° N 00:24:56 19° E visible
19 Feb 9.6 02:28:11 10° W 02:28:51 13° W 02:28:51 13° W visible
20 Feb 6.5 01:05:21 10° WNW 01:11:24 87° NNE 01:11:58 68° E visible
20 Feb 7.5 23:41:32 10° W 23:49:47 71° N 23:54:37 10° E visible
21 Feb 8.3 01:55:45 10° W 01:59:02 32° W 01:59:02 32° W visible
22 Feb 7.0 00:32:24 10° WNW 00:39:33 90° NE 00:42:11 26° ESE visible
23 Feb 7.2 01:23:02 10° W 01:28:56 50° SSW 01:29:17 49° SSW visible
23 Feb 7.5 23:59:10 10° WNW 00:07:34 89° SSW 00:12:26 10° ESE visible
24 Feb 9.1 02:14:01 10° W 02:16:24 18° WSW 02:16:24 18° WSW visible
25 Feb 7.7 00:50:02 10° WNW 00:57:01 52° SSW 00:59:38 25° SE visible
26 Feb 8.6 01:41:13 10° W 01:45:56 23° SW 01:46:48 22° SSW visible
27 Feb 8.1 00:16:45 10° WNW 00:24:59 54° SSW 00:29:51 10° SE visible
